Home   Weather   Ho Chi Minh   Past weeks

Flag for Vietnam Past Weather in Ho Chi Minh, Vietnam — Yesterday and Last 2 Weeks

Now
86 °F

Partly sunny.


Feels Like: 95 °F
Forecast: 77 / 89 °F
Wind: 3 mph from North

Location: Ho Chi Minh

Current Time: Sep 29, 2016 at 12:00:36 PM

Latest Report: Sep 29, 2016 at 11:00 AM


Visibility: N/A

Pressure: 29.74 "Hg

Humidity: 70%

Dew Point: 75 °F

Location of Ho Chi MinhLocation

Past Weather in Ho Chi Minh — Graph

°F

Ho Chi Minh Temperature Yesterday

Maximum temperature yesterday: 90 °F (at 12:30 PM)
Minimum temperature yesterday: 77 °F (at 12:00 AM)
Average temperature yesterday: 81 °F

High & Low Weather Summary for the Past Weeks

 TemperatureHumidityPressure
High93 °F (Sep 19, 12:30 PM)100% (Sep 17, 7:30 PM)29.83 "Hg (Sep 17, 7:30 PM)
Low73 °F (Sep 27, 7:00 PM)52% (Sep 19, 1:30 PM)29.62 "Hg (Sep 17, 4:00 PM)
Average82 °F83%29.73 "Hg
* Reported Sep 14 11:00 AM — Sep 29 11:00 AM, Ho Chi Minh, Weather by CustomWeather, © 2016

Note: Actual official high and low records may vary slightly from our data, if they occured in-between our weather recording intervals... More about our weather records

Advertising

Ho Chi Minh Weather History for the Previous 24 Hours

Scroll right to see more
 ConditionsComfort  
Time TempWeatherWind HumidityBarometerVisibility
11:00 AM
Thu, Sep 29
86 °FPartly sunny.3 mph70%29.74 "HgN/A
10:30 AM82 °FPartly sunny.5 mph79%29.77 "HgN/A
10:00 AM82 °FPartly sunny.3 mph84%29.77 "HgN/A
9:30 AM81 °FPartly sunny.2 mph84%29.77 "HgN/A
9:00 AM81 °FBroken clouds.1 mph89%29.77 "HgN/A
8:30 AM79 °FMore clouds than sun.2 mph94%29.74 "HgN/A
8:00 AM79 °FMore clouds than sun.2 mph89%29.74 "HgN/A
7:30 AM79 °FPartly sunny.1 mph94%29.74 "Hg4 mi
7:00 AM77 °FBroken clouds.1 mph100%29.74 "Hg5 mi
6:30 AM77 °FLight rain. Broken clouds.1 mph94%29.74 "Hg5 mi
6:00 AM77 °FBroken clouds.3 mph94%29.71 "HgN/A
5:30 AM75 °FLight rain. Partly cloudy.3 mph100%29.71 "Hg5 mi
5:00 AM75 °FLight rain. Partly cloudy.6 mph100%29.71 "Hg4 mi
4:30 AM77 °FThunderstorms. Partly cloudy.6 mph94%29.71 "Hg4 mi
4:00 AM77 °FThunderstorms. Partly cloudy.8 mph94%29.71 "HgN/A
3:30 AM77 °FThunderstorms. Partly cloudy.7 mph94%29.71 "HgN/A
3:00 AM77 °FPartly cloudy.5 mph94%29.71 "HgN/A
2:30 AM77 °FPartly cloudy.5 mph94%29.68 "HgN/A
2:00 AM79 °FPartly cloudy.5 mph89%29.71 "HgN/A
1:30 AM79 °FPartly cloudy.3 mph94%29.71 "HgN/A
1:00 AM79 °FLight rain. Partly cloudy.3 mph94%29.71 "HgN/A
12:30 AM79 °FLight rain. Partly cloudy.1 mph94%29.74 "HgN/A
12:00 AM79 °FLight rain. Partly cloudy.2 mph89%29.74 "HgN/A
11:30 PM
Wed, Sep 28
79 °FLight rain. Partly cloudy.1 mph89%29.74 "HgN/A
11:00 PM79 °FLight rain. Partly cloudy.No wind89%29.77 "HgN/A
10:30 PM79 °FLight rain. Partly cloudy.2 mph89%29.77 "HgN/A
10:00 PM79 °FLight rain. Partly cloudy.1 mph89%29.77 "HgN/A
9:30 PM79 °FPartly cloudy.1 mph94%29.77 "HgN/A
9:00 PM79 °FPartly cloudy.6 mph94%29.77 "HgN/A
8:30 PM79 °FPartly cloudy.2 mph94%29.74 "HgN/A
8:00 PM79 °FPartly cloudy.2 mph89%29.74 "HgN/A
7:30 PM79 °FLight rain. Partly cloudy.3 mph89%29.71 "HgN/A
7:00 PM79 °FLight rain. Partly cloudy.3 mph89%29.71 "HgN/A
6:30 PM79 °FLight rain. Partly cloudy.5 mph94%29.68 "Hg5 mi
6:00 PM79 °FLight rain. Mostly cloudy.6 mph94%29.68 "Hg5 mi
5:30 PM77 °FLight rain. Partly sunny.7 mph100%29.68 "Hg4 mi
5:00 PM77 °FStrong thunderstorms. Broken clouds.10 mph94%29.68 "Hg1 mi
4:30 PM81 °FSprinkles. Broken clouds.16 mph84%29.68 "Hg2 mi
3:30 PM88 °FScattered showers. Broken clouds.6 mph66%29.62 "HgN/A
3:00 PM90 °FScattered clouds.6 mph63%29.62 "HgN/A
2:30 PM90 °FScattered clouds.7 mph63%29.62 "HgN/A
2:00 PM90 °FPartly sunny.7 mph67%29.62 "HgN/A
1:30 PM90 °FPartly sunny.6 mph63%29.65 "HgN/A
1:00 PM90 °FPartly sunny.5 mph63%29.65 "HgN/A
12:30 PM90 °FPartly sunny.5 mph63%29.68 "HgN/A
12:00 PM86 °FPartly sunny.5 mph70%29.71 "HgN/A
Weather by CustomWeather, © 2016

See weather overviewHow to use our weather pages